Back to catalog

FREGAT DEB

LostUNKNOWN
NORAD 45954·DEBRIS·🇷🇺 Russia

Launched Jul 18, 2011 from Baikonur Cosmodrome

Loading…

Next Passes (next 24 hours)

TLE

StaleSource: Space-Track

Epoch: Sep 22, 2023, 03:15 UTC

1 45954U 11037FK  23265.13568837  .00416870  00000-0  91866+0 0  9993
2 45954  51.5588  61.5860 1884875 163.7557 203.3253 10.55952450119175

Track FREGAT DEB in real time with AllMySat

Download on the App Store